Tracking 19625 objects as of 26-May-2019
HD Live streaming from Space Station
objects crossing your sky now
Watch Starlink satellites crossing your sky!

OSCAR 18 (WEBERSAT)

Track OSCAR 18 (WEBERSAT) now!
10-day predictions
OSCAR 18 (WEBERSAT) is classified as:


NORAD ID: 20441
Int'l Code: 1990-005F
Perigee: 782.0 km
Apogee: 797.1 km
Inclination: 98.7 °
Period: 100.5 minutes
Semi major axis: 7160 km
RCS: 0.1264 m2 (medium)
Launch date: January 22, 1990
Source: United States (US)
Launch site: FRENCH GUIANA (FRGUI)

Uplink (MHz):
Downlink (MHz): 437.104/437.075
Beacon (MHz):
Mode: 1200bps PSK
Call sign:
Status: Inactive

aabbcc
Your satellite tracking list
Your tracking list is empty




NASA's NSSDC Master Catalog

Two Line Element Set (TLE):
1 20441U 90005F   19145.90198100 -.00000006 +00000-0 +14194-4 0  9993
2 20441 098.6676 090.3563 0010546 226.3988 174.8817 14.32803550532608
Source of the keplerian elements: AFSPC